Temperature
17 17 17 17 17 17 16 17 17 16 16 16 16 16 16 17 17 16 17 17 17 17 17 17 17 17 17 17 17 17 17 17 17 17 17 17 17 17 17 17 17 16 16
16 16 16 16 16 16 16 16 16 16 16 16 16 16 16 16 16 16 16 16 17 17 17 17 17 17 17 17 17 17 17 17 17 17 17 17 17 17 17 17 17 16 16
16 16 16 16 16 16 16 16 16 16 16 16 16 16 16 16 16 16 16 16 16 17 17 17 17 17 17 17 17 17 17 17 17 17 17 17 17 17 17 17 17 17 16
15 15 15 15 15 15 15 15 15 15 15 15 16 16 16 16 16 16 16 16 16 16 16 17 17 17 17 17 17 17 17 17 17 17 17 17 17 17 17 17 17 17 17
14 14 14 14 14 15 15 15 15 15 15 15 15 15 15 15 15 16 16 16 16 16 16 16 16 17 17 17 17 17 17 17 17 17 17 17 17 17 17 17 17 17 17
13 13 14 13 14 14 14 14 14 14 14 14 15 16 15 16 16 16 16 16 16 16 16 16 16 16 17 17 17 17 17 17 17 17 17 17 17 17 17 17 17 17 17
12 12 13 12 13 13 13 14 14 14 15 14 15 15 16 16 16 16 16 16 16 16 16 15 16 16 16 16 17 17 17 17 17 17 17 17 17 17 17 17 17 17 17
12 12 12 12 12 12 12 13 13 14 14 14 14 15 16 17 16 16 16 16 16 16 15 15 15 16 16 16 16 17 17 17 17 17 17 17 17 17 17 17 17 17 17
11 11 11 11 11 12 13 12 12 13 14 14 14 15 16 17 16 16 16 16 15 15 15 15 15 15 15 16 16 16 17 17 17 17 17 17 17 16 17 17 17 17 16
11 11 11 11 11 11 11 12 12 12 12 14 14 14 14 14 14 16 16 16 15 15 15 15 15 15 15 16 16 16 16 17 17 17 17 17 16 16 16 16 16 16 16
11 10 10 10 10 11 10 11 11 11 12 13 14 14 14 14 14 14 15 15 15 15 15 15 15 15 15 16 16 16 16 16 16 16 16 16 16 16 16 16 16 16 16
11 11 10 10 10 10 10 10 10 11 11 11 12 13 13 14 14 15 15 15 15 15 15 15 15 15 15 16 16 16 16 16 16 16 16 16 16 16 16 16 16 16 16
12 11 10 10 10 9 9 10 10 10 10 10 11 12 12 13 13 14 14 15 15 15 15 15 15 15 15 15 16 16 16 16 16 16 16 16 16 16 16 16 16 16 16
11 10 10 10 9 9 9 9 10 10 10 10 10 10 11 12 12 13 13 14 14 15 15 15 15 15 15 15 15 16 16 16 16 16 16 16 16 16 16 16 16 16 16
11 10 10 10 9 9 9 9 9 9 9 9 10 10 10 11 11 12 12 13 13 14 15 15 14 14 14 14 15 15 16 16 15 16 15 15 15 16 16 15 16 16 16
10 10 10 10 9 9 9 9 9 9 9 9 9 9 9 10 11 11 12 12 13 13 14 15 14 14 14 14 14 15 15 15 15 15 15 15 15 15 16 15 15 15 15
10 10 10 10 9 9 9 9 9 9 9 9 9 9 9 9 10 10 11 11 12 12 13 14 14 13 13 13 14 14 15 15 15 15 15 15 15 15 15 15 16 15 15
10 10 10 9 9 9 9 9 8 9 9 9 9 9 9 9 9 9 10 10 11 11 12 12 13 13 13 13 13 14 14 15 15 15 15 15 15 15 15 15 15 15 15
10 10 9 9 9 9 9 9 8 8 8 8 8 8 8 8 8 9 9 10 10 11 11 12 12 13 13 13 13 14 14 15 15 15 15 15 15 15 15 15 15 15 15
10 9 9 9 9 9 9 8 8 8 8 8 8 8 8 8 8 8 8 9 9 10 10 11 12 12 13 13 13 13 13 14 14 15 15 15 15 15 15 15 15 15 15
9 9 9 9 9 8 8 8 8 8 8 8 8 8 8 8 8 8 8 9 9 9 10 11 12 12 13 13 13 13 13 13 13 14 14 15 15 14 15 15 15 15 15
9 9 9 9 8 8 8 8 8 7 7 8 8 8 8 8 8 8 8 8 8 8 9 10 11 12 12 12 12 13 13 13 13 13 13 14 14 14 14 14 15 15 15
9 9 9 8 8 8 8 8 8 8 7 7 7 8 8 9 8 8 8 8 8 8 8 8 9 10 11 11 12 12 12 12 13 13 13 13 13 14 14 14 15 15 15
9 9 8 8 8 8 8 8 8 8 7 7 7 7 8 8 8 8 7 8 7 7 8 8 8 9 9 10 10 11 11 12 12 12 13 12 13 13 13 14 14 14 15
9 9 8 8 8 8 8 8 8 8 7 8 8 8 7 7 7 7 7 7 7 7 8 8 8 8 8 9 9 10 11 11 11 12 12 12 12 12 12 13 13 14 14
9 9 8 8 8 8 8 8 8 7 7 8 8 8 7 7 7 7 6 6 6 7 7 8 8 8 8 9 9 9 10 11 11 11 11 12 12 12 11 12 12 12 13
Wind_Speed
4 5 4 5 6 5 5 5 6 7 8 9 11 12 12 13 14 13 11 13 15 16 15 16 16 18 20 23 23 23 22 21 20 21 20 19 19 19 18 17 17 16 15
5 5 4 4 4 4 4 4 5 5 6 7 9 11 12 13 14 14 15 14 17 18 18 18 18 18 19 22 24 25 25 24 23 23 22 21 21 20 20 19 18 18 17
7 6 5 4 3 4 3 4 4 5 6 7 8 10 10 12 13 14 16 15 15 19 21 21 21 20 20 21 24 26 27 27 25 24 24 23 23 22 22 21 20 19 19
8 7 5 4 3 4 4 3 4 5 5 6 7 8 8 9 12 14 15 15 15 16 20 24 23 23 22 22 23 25 28 29 28 27 26 25 25 24 24 23 22 22 21
8 7 5 4 5 5 4 5 4 5 6 6 7 8 9 9 10 12 14 15 16 17 17 19 23 23 23 24 24 25 27 29 30 29 28 27 26 26 26 25 24 24 23
8 8 5 4 6 6 5 4 4 4 6 7 8 9 9 10 10 11 13 13 15 17 18 18 18 21 25 25 25 25 26 28 30 30 29 28 28 28 27 27 26 25 25
8 7 7 5 6 6 6 7 6 7 7 6 8 9 10 12 12 11 11 11 12 14 16 17 18 18 18 26 28 27 27 28 29 30 30 30 29 29 29 29 28 27 26
8 7 6 8 6 6 7 7 7 8 8 6 7 8 9 8 7 9 8 9 10 9 11 15 17 18 18 17 22 30 29 29 29 29 29 30 30 30 31 30 30 29 28
7 7 7 7 7 8 7 7 8 9 9 7 5 6 6 6 5 4 5 6 5 5 7 9 14 16 18 18 17 25 30 30 31 31 30 30 31 31 31 31 31 30 30
6 6 7 7 7 7 6 8 6 7 8 8 6 5 6 6 6 6 5 4 4 5 6 6 8 12 16 17 17 18 24 29 31 32 32 32 32 32 31 32 32 31 31
5 6 6 6 6 7 6 7 7 8 8 8 8 6 6 6 7 8 8 6 6 5 5 6 7 7 11 15 15 19 21 26 29 31 32 32 33 33 33 32 32 32 32
5 4 5 5 6 6 6 7 7 8 7 8 8 8 8 8 7 7 8 8 7 6 5 6 6 6 7 11 15 16 20 24 26 28 29 30 32 33 33 33 33 33 32
6 4 5 5 6 6 7 7 7 8 8 8 9 9 9 9 8 9 9 9 9 8 6 6 4 3 4 6 9 12 17 21 23 25 26 27 30 32 33 33 33 33 33
7 6 6 7 7 7 7 7 8 8 7 8 10 9 9 10 9 9 10 10 10 9 7 6 3 2 2 3 4 7 11 17 20 22 22 23 26 29 31 31 32 33 33
7 7 8 8 8 8 8 8 8 8 8 9 10 10 10 10 10 10 10 10 11 12 10 6 4 1 3 4 3 6 8 12 17 18 19 21 23 26 28 29 30 30 31
9 9 10 10 10 9 9 9 10 9 9 9 8 9 9 10 9 10 10 11 11 12 12 9 5 4 5 6 3 5 7 8 13 15 16 18 20 23 26 29 30 30 31
10 10 10 11 11 11 10 10 11 11 11 11 10 11 11 11 10 10 10 11 12 12 13 11 8 5 5 7 5 5 5 6 8 13 14 15 16 18 21 25 28 30 30
11 11 11 12 12 12 11 11 12 12 12 12 12 12 12 10 11 11 11 12 12 11 13 14 11 9 7 6 6 5 4 4 5 9 12 12 13 14 17 21 25 27 28
11 12 12 12 13 12 12 12 12 13 13 13 13 13 13 12 12 12 12 12 11 12 12 13 13 10 8 7 6 5 4 3 3 6 9 9 9 11 13 17 20 23 25
11 12 12 12 13 13 13 13 13 13 13 13 13 14 14 14 13 13 12 13 12 13 12 12 13 11 10 8 7 6 5 4 4 4 5 6 7 8 10 12 16 19 22
12 12 12 13 13 12 12 12 11 12 13 13 13 14 14 14 12 11 12 12 12 12 12 12 12 12 11 9 8 7 7 5 5 4 5 6 6 6 7 9 11 15 18
12 12 12 13 13 12 6 4 10 14 14 14 14 14 13 14 15 17 18 17 16 14 13 12 12 12 11 11 9 8 7 7 5 6 6 5 6 6 5 6 8 12 15
12 12 12 12 13 12 8 9 11 13 15 15 15 14 13 13 12 14 17 21 21 21 19 16 15 14 12 11 11 11 10 9 7 7 7 5 5 5 4 5 8 10 12
12 12 12 12 13 12 9 11 11 14 15 16 15 15 15 15 14 13 14 15 16 17 18 18 17 17 15 12 11 12 11 10 7 6 7 5 5 4 4 4 6 8 11
12 12 12 12 13 13 11 10 11 12 13 15 15 15 15 15 12 9 14 16 16 15 15 15 14 14 12 11 9 10 11 9 8 6 6 5 5 4 3 3 4 6 9
12 12 12 12 13 14 11 9 10 11 13 13 13 13 14 15 12 8 14 15 17 16 15 15 16 17 18 18 15 15 14 12 9 7 7 7 7 6 4 2 2 4 6
Wind_Direction
301 296 285 278 269 264 249 247 248 249 248 243 240 235 234 234 237 239 235 214 217 222 229 233 234 230 223 217 213 212 211 209 206 204 202 201 198 195 194 193 191 189 187
332 312 289 282 275 272 276 268 261 257 250 249 247 245 242 239 236 236 239 229 219 220 225 231 234 234 230 224 219 215 212 211 209 207 205 203 201 198 197 196 196 195 194
344 320 300 282 286 274 262 261 263 260 256 253 253 251 247 242 240 237 240 239 231 221 222 227 232 235 235 232 226 220 215 212 210 208 207 205 204 201 200 199 199 199 199
349 321 306 298 303 278 268 265 262 269 270 270 265 260 252 243 240 238 238 235 236 235 225 222 228 231 234 234 231 225 218 213 210 209 208 207 207 205 204 202 201 201 202
351 326 316 327 294 278 274 278 283 288 287 284 276 259 253 246 240 237 237 238 235 234 235 223 220 226 231 232 232 229 222 216 211 209 208 209 209 208 207 205 204 203 204
356 337 313 331 305 289 283 282 290 282 287 283 284 278 263 253 244 239 237 236 234 232 232 233 226 225 227 230 231 229 225 218 213 211 210 211 211 211 210 208 207 206 205
352 341 330 327 308 300 302 289 283 278 275 289 284 277 263 247 240 238 236 237 235 233 232 230 230 230 226 223 226 227 224 220 215 213 212 213 213 213 212 210 208 207 207
338 333 343 316 318 308 284 285 278 287 288 279 287 292 284 259 228 236 232 230 239 237 233 230 228 228 231 227 220 219 222 219 215 214 214 214 214 215 213 212 210 208 208
327 329 324 322 321 302 302 301 288 275 280 279 275 288 293 294 315 245 232 228 228 238 242 238 231 229 228 229 229 213 215 217 216 214 214 213 214 214 214 213 212 211 210
316 316 316 317 315 310 314 294 295 291 275 274 261 257 275 300 293 291 265 237 234 246 253 251 243 231 227 227 228 229 213 213 215 216 215 214 214 214 214 214 214 213 213
308 312 312 313 311 304 317 314 308 292 281 275 277 270 267 263 261 272 283 289 277 261 252 254 253 241 230 228 227 227 217 214 215 217 217 216 215 214 214 213 215 216 215
307 315 307 307 301 309 309 301 300 284 286 288 282 276 272 273 274 277 280 280 281 278 278 269 257 249 234 232 229 224 217 216 216 218 220 219 217 214 213 213 215 216 217
309 318 309 298 300 301 296 296 289 292 285 282 274 272 272 273 278 279 280 283 286 284 273 265 247 254 247 238 235 223 223 219 219 219 221 220 217 215 214 213 215 217 219
306 314 294 286 285 286 288 289 285 277 276 279 275 277 277 269 271 270 273 280 281 278 267 261 265 264 296 266 246 229 230 220 221 221 222 221 218 215 214 213 214 215 217
288 289 288 284 281 278 279 280 277 281 277 272 272 262 261 270 265 266 268 268 273 278 274 260 252 270 317 304 294 253 237 217 215 217 220 221 220 217 214 211 212 213 214
282 282 282 282 280 277 271 268 272 263 264 265 268 278 277 272 272 268 266 265 264 267 274 273 259 273 314 303 290 274 247 213 210 211 217 220 219 216 213 210 210 211 211
281 277 278 279 279 277 274 268 268 272 264 264 264 261 260 269 272 272 265 261 260 260 264 267 262 255 270 286 291 282 255 225 204 202 208 214 217 217 215 211 208 207 208
276 278 278 278 278 278 276 272 270 270 265 262 260 261 260 258 256 262 267 266 264 266 266 269 268 260 250 259 275 277 261 231 207 189 197 205 211 215 215 212 207 205 205
277 280 279 278 279 279 276 272 270 268 267 265 262 260 258 258 258 259 259 262 262 258 256 261 262 259 253 247 250 251 242 225 200 177 182 188 200 209 213 210 206 203 202
279 280 280 280 280 279 276 274 271 270 269 267 264 260 258 254 253 255 256 256 260 264 261 258 260 256 247 237 235 236 225 204 191 172 158 157 166 183 198 200 201 199 198
278 280 281 281 279 278 273 275 279 278 275 271 266 261 257 254 257 258 262 260 256 253 255 252 252 252 247 238 234 228 223 201 188 182 169 165 162 167 175 184 192 194 192
280 281 280 281 281 279 292 287 277 280 278 273 270 266 260 247 239 235 248 260 267 264 260 261 256 252 252 249 243 237 224 207 202 188 179 171 173 165 163 169 168 181 187
283 282 282 281 280 279 267 249 253 271 273 271 269 267 264 258 241 244 233 232 244 249 255 262 265 266 262 252 255 245 231 225 217 183 178 169 166 151 130 111 140 170 184
287 286 284 282 281 279 260 244 247 264 267 265 263 261 262 265 261 257 258 249 243 238 234 237 247 258 264 274 268 260 256 238 227 196 179 168 161 145 127 115 131 166 180
287 286 284 282 281 280 262 238 243 273 266 265 264 262 261 262 258 244 257 259 257 252 241 238 247 255 274 287 284 270 250 230 219 200 190 171 149 131 128 120 104 143 168
285 286 286 284 282 280 270 239 235 267 269 270 268 264 253 249 262 240 253 255 254 251 252 241 231 239 247 249 243 247 251 237 221 200 185 173 155 150 139 119 113 127 140
Height
1552 1552 1551 1551 1551 1551 1551 1550 1550 1551 1551 1552 1553 1554 1554 1555 1556 1558 1559 1559 1561 1563 1565 1567 1569 1571 1573 1575 1577 1579 1581 1584 1586 1589 1591 1593 1596 1598 1600 1602 1603 1605 1607
1550 1550 1549 1548 1548 1548 1548 1547 1547 1547 1547 1548 1548 1549 1549 1550 1550 1552 1553 1555 1555 1557 1559 1562 1564 1567 1569 1571 1573 1576 1578 1581 1583 1585 1588 1591 1593 1596 1598 1600 1602 1604 1606
1548 1547 1547 1547 1546 1545 1544 1544 1544 1544 1544 1544 1544 1544 1544 1544 1545 1546 1547 1549 1550 1551 1553 1555 1558 1561 1563 1566 1569 1571 1574 1577 1579 1582 1585 1587 1590 1593 1596 1598 1600 1603 1605
1545 1545 1545 1545 1543 1543 1543 1542 1542 1542 1542 1541 1540 1540 1540 1539 1539 1540 1541 1542 1544 1545 1547 1548 1551 1554 1556 1560 1563 1566 1569 1572 1575 1578 1581 1583 1587 1590 1593 1596 1598 1600 1603
1543 1543 1543 1542 1541 1541 1541 1540 1540 1539 1539 1538 1537 1536 1535 1535 1535 1535 1536 1536 1537 1538 1540 1542 1543 1546 1549 1552 1556 1559 1563 1566 1569 1573 1576 1579 1582 1586 1589 1592 1595 1598 1600
1541 1540 1540 1538 1539 1539 1538 1538 1537 1536 1535 1534 1533 1533 1531 1531 1530 1531 1531 1531 1532 1532 1533 1535 1537 1539 1542 1545 1548 1552 1556 1560 1563 1567 1571 1574 1577 1581 1584 1588 1591 1594 1597
1539 1537 1538 1536 1535 1536 1535 1535 1534 1534 1533 1531 1530 1529 1527 1526 1526 1525 1526 1526 1527 1526 1527 1528 1530 1532 1535 1537 1541 1545 1549 1553 1557 1560 1564 1568 1572 1576 1579 1583 1586 1590 1593
1537 1537 1534 1534 1533 1532 1531 1531 1530 1530 1530 1529 1528 1526 1524 1523 1520 1521 1521 1521 1521 1521 1521 1522 1523 1525 1527 1531 1533 1536 1541 1545 1549 1553 1557 1561 1566 1570 1574 1578 1581 1585 1588
1535 1533 1532 1531 1529 1529 1529 1527 1527 1527 1526 1526 1525 1525 1522 1519 1518 1518 1517 1517 1517 1517 1517 1517 1518 1518 1520 1523 1527 1529 1533 1537 1541 1545 1550 1554 1558 1563 1567 1571 1575 1579 1583
1533 1531 1529 1527 1526 1526 1525 1524 1524 1523 1523 1523 1522 1522 1521 1520 1519 1516 1516 1515 1514 1514 1514 1513 1514 1514 1515 1517 1520 1523 1526 1530 1534 1538 1542 1546 1550 1555 1560 1564 1569 1573 1577
1530 1528 1526 1525 1523 1523 1521 1520 1519 1519 1520 1520 1520 1519 1519 1518 1517 1516 1513 1513 1512 1511 1511 1510 1510 1510 1511 1512 1514 1516 1519 1522 1526 1530 1534 1538 1542 1547 1552 1557 1561 1566 1570
1529 1527 1524 1522 1521 1520 1518 1517 1516 1516 1516 1515 1515 1516 1516 1515 1514 1513 1511 1510 1509 1508 1507 1507 1507 1507 1507 1507 1509 1511 1513 1516 1519 1523 1527 1530 1534 1539 1544 1548 1553 1558 1563
1528 1525 1522 1520 1518 1517 1515 1514 1513 1512 1512 1511 1511 1512 1512 1512 1511 1510 1509 1507 1506 1505 1504 1503 1503 1503 1503 1503 1504 1505 1507 1510 1513 1516 1519 1522 1526 1530 1535 1540 1545 1551 1556
1524 1521 1519 1517 1515 1514 1513 1511 1510 1510 1509 1507 1507 1507 1507 1507 1507 1507 1507 1505 1503 1502 1500 1500 1499 1499 1498 1498 1499 1500 1502 1504 1507 1510 1512 1515 1519 1523 1527 1532 1537 1543 1548
1520 1518 1516 1514 1512 1511 1509 1507 1507 1506 1505 1504 1504 1503 1502 1503 1503 1502 1502 1502 1502 1499 1497 1496 1496 1495 1495 1495 1495 1496 1497 1499 1502 1504 1506 1509 1512 1516 1520 1524 1529 1535 1541
1516 1514 1512 1510 1509 1507 1505 1504 1503 1502 1501 1499 1499 1498 1497 1498 1498 1498 1497 1497 1497 1496 1494 1493 1493 1492 1491 1492 1492 1492 1493 1494 1496 1499 1501 1503 1506 1510 1513 1518 1523 1528 1533
1512 1510 1508 1506 1504 1503 1501 1500 1498 1497 1496 1495 1494 1494 1493 1492 1493 1493 1493 1492 1492 1492 1490 1489 1489 1489 1488 1488 1488 1488 1489 1490 1492 1494 1496 1498 1501 1504 1508 1512 1517 1522 1527
1507 1506 1504 1501 1500 1498 1497 1495 1493 1492 1491 1490 1489 1489 1488 1488 1487 1487 1487 1487 1487 1486 1486 1485 1485 1485 1484 1484 1484 1484 1485 1486 1488 1489 1491 1494 1496 1499 1503 1507 1511 1516 1521
1502 1500 1498 1496 1494 1493 1491 1489 1488 1486 1485 1484 1484 1483 1483 1482 1482 1482 1481 1481 1481 1481 1481 1481 1480 1480 1480 1480 1480 1481 1481 1482 1483 1485 1487 1489 1492 1495 1498 1502 1506 1511 1516
1497 1495 1493 1491 1489 1487 1485 1484 1482 1481 1479 1478 1478 1477 1477 1476 1476 1476 1476 1475 1476 1476 1476 1475 1475 1475 1476 1476 1476 1476 1477 1478 1479 1481 1483 1485 1488 1491 1494 1498 1502 1507 1511
1491 1489 1487 1484 1482 1481 1479 1478 1477 1475 1474 1472 1471 1471 1470 1470 1469 1470 1471 1471 1471 1471 1471 1470 1470 1470 1471 1471 1472 1472 1473 1474 1475 1476 1479 1481 1484 1487 1490 1494 1498 1502 1507
1485 1483 1481 1478 1476 1475 1474 1471 1470 1468 1467 1466 1465 1464 1464 1463 1462 1462 1462 1463 1464 1465 1465 1466 1465 1465 1466 1467 1468 1468 1469 1470 1471 1473 1475 1477 1480 1483 1486 1490 1493 1498 1502
1480 1477 1475 1472 1470 1468 1467 1465 1463 1462 1460 1459 1458 1458 1458 1458 1457 1456 1455 1455 1456 1456 1458 1459 1459 1460 1461 1463 1463 1464 1465 1465 1467 1468 1471 1473 1476 1479 1482 1485 1489 1494 1498
1474 1471 1468 1466 1464 1462 1460 1459 1457 1455 1453 1452 1451 1451 1450 1450 1450 1450 1450 1449 1449 1449 1450 1451 1452 1453 1456 1457 1458 1459 1460 1461 1463 1464 1467 1469 1472 1475 1478 1481 1485 1489 1493
1467 1465 1462 1460 1458 1456 1455 1453 1451 1449 1448 1446 1445 1444 1443 1443 1442 1442 1442 1442 1442 1443 1443 1444 1445 1446 1447 1449 1451 1453 1455 1457 1457 1459 1462 1465 1467 1471 1475 1478 1481 1485 1489
1461 1459 1456 1454 1452 1450 1449 1447 1445 1443 1442 1440 1439 1437 1436 1435 1435 1434 1434 1434 1434 1435 1436 1437 1437 1438 1439 1441 1444 1446 1449 1451 1452 1454 1456 1460 1463 1467 1471 1475 1478 1482 1485